Regional Weather Roundup
Issued by NWS

Home | Current Version | Previous Version | Text Only | Print | Product List | Glossary Off
Versions: 1 2 3 4 5 6 7 8 9 10 11 12 13 14 15 16 17 18 19 20 21 22 23 24 25 26 27 28 29 30 31 32 33 34 35 36 37 38 39 40 41 42 43 44 45 46 47 48 49 50

000
ASUS45 KBOU 210107
RWRCO

WEATHER ROUNDUP FOR COLORADO
NATIONAL WEATHER SERVICE DENVER/BOULDER CO
700 PM MDT MON APR 20 2015

NOTE: "FAIR" INDICATES FEW OR NO CLOUDS BELOW 12000 FEET WITH NO
SIGNIFICANT WEATHER AND/OR OBSTRUCTIONS TO VISIBILITY.

COZ001>005-013-030-031-210200-
...NORTHWEST COLORADO...

CITY           SKY/WX    TMP DP  RH WIND       PRES   REMARKS
CRAIG          PTCLDY    50  36  58 SE8       29.92F
HAYDEN         PTCLDY    46  30  53 NE6       29.95F
MEEKER         CLOUDY    50  34  54 E7        29.93F
MOUNT WERNER   NOT AVBL
STEAMBOAT SPGS MOCLDY    45  29  54 CALM      29.96F
WALDEN         CLEAR     41  19  42 NW14      29.97R
$$

COZ006>008-011-210200-
...WEST CENTRAL VALLEYS...

CITY           SKY/WX    TMP DP  RH WIND       PRES   REMARKS
GRAND JUNCTION PTCLDY    64  29  26 NW5       29.85S
MONTROSE       PTCLDY    61  29  29 W6        29.92F
EAGLE          MOCLDY    43  37  81 VRB7      30.01R
RIFLE          PTCLDY    59  31  34 S5        29.89F
DELTA          PTCLDY    66  27  23 NW8       29.88F
NUCLA          PTCLDY    61  23  23 NW9       29.94S
$$

COZ017>023-064>068-210200-
...SOUTHWEST COLORADO...

CITY           SKY/WX    TMP DP  RH WIND       PRES   REMARKS
DURANGO        MOCLDY    57  22  25 W17       29.92F
CORTEZ         CLEAR     62  24  23 SW3       29.91F
PAGOSA SPRINGS MOCLDY    54  15  21 W7        29.95S
TELLURIDE      MOCLDY    48  16  28 W15G25    30.04S
WOLF CREEK PAS PTCLDY    32  14  47 W9        30.13S WCI  24
$$

COZ009-010-012-014-032>034-037-058>063-210200-
...CENTRAL COLORADO...

CITY           SKY/WX    TMP DP  RH WIND       PRES   REMARKS
ASPEN          MOCLDY    43  29  57 N3        29.98R
BUENA VISTA    PTCLDY    46  22  38 NW16G23   29.97R
COPPER MTN     NOT AVBL
BERTHOUD PASS  HVY SNOW  19  10  68 NW38      30.01F VSB<1/4 WCI  -1
COTTONWOOD PAS PTCLDY    41  19  42 W7        30.02S
GUNNISON       PTCLDY    50  21  32 NW8       29.99F
KREMMLING      MOCLDY    41  32  70 W9        30.01S
LEADVILLE      CLOUDY    30  24  78 N6        30.03S WCI  24
MONARCH PASS   PTCLDY    28  19  69 W37       30.16F WCI  11
SALIDA         PTCLDY    52  21  29 W6        30.01R
SUNLIGHT       MOCLDY    36  32  87 CALM      30.10S
WILKERSON PASS PTCLDY    30  21  69 NW8       30.08R WCI  23
$$

COZ069>075-210200-
...SAN LUIS VALLEY/SANGRE DE CRISTO MOUNTAINS...

CITY           SKY/WX    TMP DP  RH WIND       PRES   REMARKS
ALAMOSA        MOCLDY    52  20  28 N14G22    29.94R
LA VETA PASS   MOCLDY    37  28  70 SW3       30.03R
SAGUACHE       PTCLDY    48  25  40 NW13      29.97F
$$

COZ035-036-038>040-210200-
...NORTHERN COLORADO FRONT RANGE...

CITY           SKY/WX    TMP DP  RH WIND       PRES   REMARKS
DENVER INTL AP MOCLDY    48  32  53 N6        29.92S
DMNS CITY PARK   N/A     51  31  48 W14G20    29.93R
AURORA         NOT AVBL
FRONT RANGE AP NOT AVBL
ERIE MUNI ARPT MOCLDY    51  33  49 N3        29.93R
BOULDER MUN AP CLOUDY    50  34  53 NW3       29.93R
CENTENNIAL     CLOUDY    48  32  53 N12       29.94R
BROOMFIELD     NOT AVBL
FORT COLLINS   PTCLDY    50  34  53 S7        29.94R
LONGMONT       PTCLDY    52  35  52 N5        29.95R
$$

COZ041-046-047-076>085-087-088-210200-
...PIKES PEAK/PALMER DIVIDE AND SOUTHERN FOOTHILLS...

CITY           SKY/WX    TMP DP  RH WIND       PRES   REMARKS
COLO. SPRINGS  MOCLDY    48  34  58 E6        29.94R
A. F. ACADEMY  NOT AVBL
ELLICOTT       MOCLDY   N/A N/A N/A CALM      29.93S
FALCON         DRIZZLE   45  34  65 CALM      29.96S
FORT CARSON    NOT AVBL
LIMON          CLOUDY    50  26  39 N8        29.92S
MONUMENT HILL  MOCLDY    41  32  70 E8        29.95S
TRINIDAD       MOCLDY    51  35  54 W8        29.89R
$$

COZ042>045-048>051-090-091-210200-
...NORTHEAST COLORADO...

CITY           SKY/WX    TMP DP  RH WIND       PRES   REMARKS
GREELEY ARPT   PTCLDY    54  27  35 N7        29.92S
AKRON          CLEAR     50  25  37 N10       29.90R
BURLINGTON     CLEAR     54  28  36 NW9       29.90S
WRAY           CLEAR     55  24  30 NW10      29.89R
STERLING       CLEAR     54  28  37 N6        29.88S
HOLYOKE        CLEAR     55  25  30 N12       29.88S
FORT MORGAN    CLEAR     53  22  30 NW12      29.91S
$$

COZ086-089-092>099-210200-
...SOUTHEAST COLORADO...

CITY           SKY/WX    TMP DP  RH WIND       PRES   REMARKS
PUEBLO         PTCLDY    57  28  33 SE12      29.88R
LA JUNTA       PTCLDY    59  32  36 E9        29.88F
LAMAR          MOCLDY    58  33  39 NE7       29.88S
SPRINGFIELD      N/A     54  41  61 SW18      29.88R
$$


USA.gov is the U.S. government's official web portal to all federal, state and local government web resources and services.